Weather History for Puntzi Mountain, BC

Change the Weather History Date:

Sunday, October 20, 2013

  Actual Average Record
Temperature  
Mean Temperature 48 °F -  
Max Temperature 70 °F - - ()
Min Temperature 25 °F - - ()
Degree Days  
Heating Degree Days 18    
Moisture  
Dew Point 31 °F    
Average Humidity 70    
Maximum Humidity 97    
Minimum Humidity 21    
Precipitation  
Precipitation 0.04 in - - ()
Sea Level Pressure  
Sea Level Pressure 30.26 in    
Wind  
Wind Speed 1 mph ()    
Max Wind Speed 6 mph    
Max Gust Speed -    
T = Trace of Precipitation, MM = Missing Value Source: Averaged Metar Reports

Daily Weather History Graph

Daily Weather History Graph

Search for Another Location

Airport:

Trip Planner

Search our weather history database for the weather conditions in past years. The results will help you decide how hot, cold, wet, or windy it might be!

Date:

Astronomy

Oct. 20, 2013 Rise Set
Actual Time 7:50 AM PDT 6:10 PM PDT
Civil Twilight 7:16 AM PDT 6:45 PM PDT
Nautical Twilight 6:37 AM PDT 7:24 PM PDT
Astronomical Twilight 5:57 AM PDT 8:03 PM PDT
Moon 7:07 PM PDT (10/20) 9:48 AM PDT (10/20)
Length of Visible Light 11h 28m
Length of Day
10h 19m
Waning Gibbous, 97% of the Moon is Illuminated
Oct 20
Waning Gibbous
Oct 26
Last Quarter
Nov 3
New
Nov 9
First Quarter
Nov 17
Full

Hourly Weather History & Observations

Time (PDT) Temp. Windchill Dew Point Humidity Pressure Visibility Wind Dir Wind Speed Gust Speed Precip Events Conditions
12:00 AM 33.8 °F - 29.7 °F 85% 30.28 in - NW 1.2 mph - N/A   Unknown
1:00 AM 31.5 °F - 28.9 °F 90% 30.27 in - NNE 1.2 mph - N/A   Unknown
2:00 AM 30 °F - 28 °F 87% 30.25 in - West 1.2 mph - -  
2:00 AM 30.2 °F - 27.7 °F 90% 30.26 in - East 1.2 mph - N/A   Unknown
3:00 AM 29.5 °F - 27.1 °F 91% 30.25 in - West 2.3 mph - N/A   Unknown
4:00 AM 29.3 °F - 27.7 °F 94% 30.25 in - North 1.2 mph - 0.04 in   Unknown
5:00 AM 29 °F - 27 °F 90% 30.27 in - NW 2.3 mph - -  
5:00 AM 28.9 °F - 27.1 °F 93% 30.26 in - Calm Calm - N/A   Unknown
6:00 AM 26.8 °F - 25.2 °F 94% 30.29 in - Calm Calm - N/A   Unknown
7:00 AM 27.0 °F - 25.9 °F 96% 30.32 in - Calm Calm - N/A   Unknown
8:00 AM 25 °F - 24 °F 95% 30.34 in - West 4.6 mph - -  
8:00 AM 25.0 °F 19.3 °F 24.3 °F 97% 30.33 in - West 4.6 mph - N/A   Unknown
9:00 AM 30.2 °F - 27.7 °F 90% 30.33 in - Calm Calm - N/A   Unknown
10:00 AM 36.5 °F - 30.4 °F 78% 30.33 in - ESE 1.2 mph - N/A   Unknown
11:00 AM 44 °F - 33 °F 56% 30.31 in - SE 2.3 mph - -  
11:00 AM 44.2 °F - 33.4 °F 66% 30.31 in - SE 1.2 mph - N/A   Unknown
12:00 PM 52.5 °F - 34.9 °F 51% 30.28 in - Calm Calm - N/A   Unknown
1:00 PM 61.0 °F - 36.1 °F 40% 30.26 in - South 2.3 mph - N/A   Unknown
2:00 PM 65 °F - 36 °F 23% 30.23 in - ENE 1.2 mph - -  
2:00 PM 64.9 °F - 36.5 °F 35% 30.22 in - North 1.2 mph - N/A   Unknown
3:00 PM 68.5 °F - 36.9 °F 31% 30.20 in - East 1.2 mph - N/A   Unknown
4:00 PM 69.1 °F - 37.8 °F 32% 30.19 in - ESE 5.8 mph - N/A   Unknown
5:00 PM 68 °F - 37 °F 21% 30.19 in - East 4.6 mph - -  
5:00 PM 68.0 °F - 37.4 °F 33% 30.19 in - East 3.5 mph - N/A   Unknown
6:00 PM 60.1 °F - 36.7 °F 42% 30.20 in - East 1.2 mph - N/A   Unknown
7:00 PM - - - N/A% 30.23 in - Calm Calm - N/A   Unknown
8:00 PM 44 °F - 36 °F 64% 30.25 in - Calm Calm - -  
8:00 PM 43.9 °F - 36.0 °F 74% 30.25 in - Calm Calm - N/A   Unknown
9:00 PM 39.9 °F - 32.7 °F 75% 30.27 in - Calm Calm - N/A   Unknown
10:00 PM 37.4 °F - 32.4 °F 82% 30.27 in - Calm Calm - N/A   Unknown
11:00 PM 34 °F - 31 °F 85% 30.25 in - East 3.5 mph - -  
11:00 PM 34.2 °F - 31.1 °F 89% 30.27 in - East 1.2 mph - N/A   Unknown